contact:dominique.lefevre@mio.osupytheas.fr, maurice.libes@osupytheas.fr, didier.mallarino@osupytheas.fr
Project:EMSO http://www.emso-fr.org/EMSO-France
Depth: 2436.0 m
Title:EMSO Ligure Ouest : Data MII capteur MICROCAT
DateTime_Computer,Latitude,Longitude,Temperature,Conductivity,Pressure,DateTime_Instrument
DateTime_Computer,Latitude,Longitude,degC,S m-1,dbar,DateTime_Instrument
2022-05-04T00:02:42Z,42.805,6.029,13.2999,4.60035,2470.18,2022-5-04T02:04:22Z
2022-05-04T00:05:46Z,42.805,6.029,13.2997,4.60037,2470.18,2022-5-04T02:07:26Z
2022-05-04T00:08:49Z,42.805,6.029,13.3000,4.60038,2470.156,2022-5-04T02:10:29Z
2022-05-04T00:11:52Z,42.805,6.029,13.2996,4.60038,2470.156,2022-5-04T02:13:32Z
2022-05-04T00:14:55Z,42.805,6.029,13.2996,4.60038,2470.156,2022-5-04T02:16:35Z
2022-05-04T00:17:58Z,42.805,6.029,13.3000,4.60036,2470.143,2022-5-04T02:19:38Z
2022-05-04T00:21:01Z,42.805,6.029,13.2996,4.60039,2470.171,2022-5-04T02:22:41Z
2022-05-04T00:24:04Z,42.805,6.029,13.3003,4.60036,2470.124,2022-5-04T02:25:44Z
2022-05-04T00:27:07Z,42.805,6.029,13.2995,4.60036,2470.147,2022-5-04T02:28:47Z
2022-05-04T00:30:10Z,42.805,6.029,13.2997,4.60036,2470.147,2022-5-04T02:31:50Z
2022-05-04T00:33:14Z,42.805,6.029,13.2998,4.60035,2470.087,2022-5-04T02:34:54Z
2022-05-04T00:36:17Z,42.805,6.029,13.3000,4.60034,2470.156,2022-5-04T02:37:57Z
2022-05-04T00:39:20Z,42.805,6.029,13.2999,4.60035,2470.171,2022-5-04T02:41:00Z
2022-05-04T00:42:23Z,42.805,6.029,13.2996,4.60037,2470.133,2022-5-04T02:44:03Z
2022-05-04T00:45:26Z,42.805,6.029,13.2998,4.60036,2470.171,2022-5-04T02:47:06Z
2022-05-04T00:48:29Z,42.805,6.029,13.2994,4.60036,2470.133,2022-5-04T02:50:09Z
2022-05-04T00:51:32Z,42.805,6.029,13.2998,4.60036,2470.133,2022-5-04T02:53:12Z
2022-05-04T00:54:35Z,42.805,6.029,13.2996,4.60036,2470.133,2022-5-04T02:56:15Z
2022-05-04T00:57:39Z,42.805,6.029,13.2998,4.60036,2470.11,2022-5-04T02:59:18Z
2022-05-04T01:00:42Z,42.805,6.029,13.2998,4.60038,2470.1,2022-5-04T03:02:22Z
2022-05-04T01:03:45Z,42.805,6.029,13.3000,4.60036,2470.124,2022-5-04T03:05:25Z
2022-05-04T01:06:48Z,42.805,6.029,13.3000,4.60036,2470.133,2022-5-04T03:08:28Z
2022-05-04T01:09:51Z,42.805,6.029,13.2995,4.60035,2470.11,2022-5-04T03:11:31Z
2022-05-04T01:12:54Z,42.805,6.029,13.2998,4.60039,2470.147,2022-5-04T03:14:34Z
2022-05-04T01:15:57Z,42.805,6.029,13.2998,4.60035,2470.11,2022-5-04T03:17:37Z
2022-05-04T01:19:00Z,42.805,6.029,13.2997,4.60036,2470.1,2022-5-04T03:20:40Z
2022-05-04T01:22:03Z,42.805,6.029,13.3000,4.60035,2470.087,2022-5-04T03:23:43Z
2022-05-04T01:25:07Z,42.805,6.029,13.2998,4.60038,2470.087,2022-5-04T03:26:47Z
2022-05-04T01:28:10Z,42.805,6.029,13.2996,4.60036,2470.087,2022-5-04T03:29:50Z
2022-05-04T01:31:13Z,42.805,6.029,13.2993,4.60035,2470.11,2022-5-04T03:32:53Z
2022-05-04T01:34:16Z,42.805,6.029,13.2997,4.60034,2470.11,2022-5-04T03:35:56Z
2022-05-04T01:37:19Z,42.805,6.029,13.2997,4.60036,2470.087,2022-5-04T03:38:59Z
2022-05-04T01:40:22Z,42.805,6.029,13.3000,4.60034,2470.087,2022-5-04T03:42:02Z
2022-05-04T01:43:25Z,42.805,6.029,13.2999,4.60036,2470.077,2022-5-04T03:45:05Z
2022-05-04T01:46:28Z,42.805,6.029,13.2998,4.60036,2470.049,2022-5-04T03:48:08Z
2022-05-04T01:49:31Z,42.805,6.029,13.2998,4.60036,2470.063,2022-5-04T03:51:11Z
2022-05-04T01:52:35Z,42.805,6.029,13.2998,4.60036,2470.077,2022-5-04T03:54:15Z
2022-05-04T01:55:38Z,42.805,6.029,13.2996,4.60035,2470.03,2022-5-04T03:57:18Z
2022-05-04T01:58:41Z,42.805,6.029,13.3000,4.60033,2470.063,2022-5-04T04:00:21Z
2022-05-04T02:01:44Z,42.805,6.029,13.2998,4.60036,2470.063,2022-5-04T04:03:24Z
2022-05-04T02:04:47Z,42.805,6.029,13.2999,4.60036,2470.077,2022-5-04T04:06:27Z
2022-05-04T02:07:50Z,42.805,6.029,13.2998,4.60037,2470.077,2022-5-04T04:09:30Z
2022-05-04T02:10:53Z,42.805,6.029,13.2997,4.60037,2470.04,2022-5-04T04:12:33Z
2022-05-04T02:13:56Z,42.805,6.029,13.2998,4.60037,2470.1,2022-5-04T04:15:36Z
2022-05-04T02:17:00Z,42.805,6.029,13.2998,4.60034,2470.053,2022-5-04T04:18:40Z
2022-05-04T02:20:03Z,42.805,6.029,13.2998,4.60034,2470.04,2022-5-04T04:21:43Z
2022-05-04T02:23:06Z,42.805,6.029,13.2996,4.60034,2470.087,2022-5-04T04:24:46Z
2022-05-04T02:26:09Z,42.805,6.029,13.2999,4.60034,2469.993,2022-5-04T04:27:49Z
2022-05-04T02:29:12Z,42.805,6.029,13.2999,4.60036,2470.077,2022-5-04T04:30:52Z
2022-05-04T02:32:15Z,42.805,6.029,13.2998,4.60036,2470.063,2022-5-04T04:33:55Z
2022-05-04T02:35:18Z,42.805,6.029,13.3000,4.60036,2470.04,2022-5-04T04:36:58Z
2022-05-04T02:38:21Z,42.805,6.029,13.2999,4.60036,2470.04,2022-5-04T04:40:01Z
2022-05-04T02:41:24Z,42.805,6.029,13.2999,4.60036,2470.053,2022-5-04T04:43:04Z
2022-05-04T02:44:28Z,42.805,6.029,13.2998,4.60035,2470.053,2022-5-04T04:46:08Z
2022-05-04T02:47:31Z,42.805,6.029,13.2996,4.60035,2470.04,2022-5-04T04:49:11Z
2022-05-04T02:50:34Z,42.805,6.029,13.2998,4.60034,2470.026,2022-5-04T04:52:14Z
2022-05-04T02:53:37Z,42.805,6.029,13.2999,4.60035,2470.017,2022-5-04T04:55:17Z
2022-05-04T02:56:40Z,42.805,6.029,13.2997,4.60033,2470.04,2022-5-04T04:58:20Z
2022-05-04T02:59:43Z,42.805,6.029,13.2999,4.60033,2470.017,2022-5-04T05:01:23Z
2022-05-04T03:02:46Z,42.805,6.029,13.2997,4.60034,2470.1,2022-5-04T05:04:26Z
2022-05-04T03:05:49Z,42.805,6.029,13.3000,4.60034,2470.053,2022-5-04T05:07:29Z
2022-05-04T03:08:52Z,42.805,6.029,13.3002,4.60036,2469.993,2022-5-04T05:10:32Z
2022-05-04T03:11:56Z,42.805,6.029,13.3000,4.60035,2470.017,2022-5-04T05:13:36Z
2022-05-04T03:14:59Z,42.805,6.029,13.3000,4.60034,2470.053,2022-5-04T05:16:39Z
2022-05-04T03:18:02Z,42.805,6.029,13.2993,4.60035,2470.053,2022-5-04T05:19:42Z
2022-05-04T03:21:05Z,42.805,6.029,13.2996,4.60034,2469.993,2022-5-04T05:22:45Z
2022-05-04T03:24:08Z,42.805,6.029,13.2998,4.60034,2470.04,2022-5-04T05:25:48Z
2022-05-04T03:27:11Z,42.805,6.029,13.2996,4.60033,2470.007,2022-5-04T05:28:51Z
2022-05-04T03:30:14Z,42.805,6.029,13.2996,4.60034,2470.017,2022-5-04T05:31:54Z
2022-05-04T03:33:17Z,42.805,6.029,13.2997,4.60034,2470.04,2022-5-04T05:34:57Z
2022-05-04T03:36:21Z,42.805,6.029,13.2996,4.60034,2469.993,2022-5-04T05:38:01Z
2022-05-04T03:39:24Z,42.805,6.029,13.3000,4.60038,2470.017,2022-5-04T05:41:04Z
2022-05-04T03:42:27Z,42.805,6.029,13.2998,4.60034,2470.03,2022-5-04T05:44:07Z
2022-05-04T03:45:30Z,42.805,6.029,13.2998,4.60035,2470.03,2022-5-04T05:47:10Z
2022-05-04T03:48:33Z,42.805,6.029,13.2997,4.60036,2470.053,2022-5-04T05:50:13Z
2022-05-04T03:51:36Z,42.805,6.029,13.2999,4.60038,2470.077,2022-5-04T05:53:16Z
2022-05-04T03:54:39Z,42.805,6.029,13.2997,4.60037,2470.017,2022-5-04T05:56:19Z
2022-05-04T03:57:42Z,42.805,6.029,13.2998,4.60037,2470.03,2022-5-04T05:59:22Z
2022-05-04T04:00:45Z,42.805,6.029,13.2998,4.60033,2470.03,2022-5-04T06:02:25Z
2022-05-04T04:03:49Z,42.805,6.029,13.2994,4.60034,2470.003,2022-5-04T06:05:29Z
2022-05-04T04:06:52Z,42.805,6.029,13.2994,4.60034,2470.03,2022-5-04T06:08:32Z
2022-05-04T04:09:55Z,42.805,6.029,13.2998,4.60033,2470.053,2022-5-04T06:11:35Z
2022-05-04T04:12:58Z,42.805,6.029,13.2993,4.60036,2470.017,2022-5-04T06:14:38Z
2022-05-04T04:16:01Z,42.805,6.029,13.2998,4.60033,2469.993,2022-5-04T06:17:41Z
2022-05-04T04:19:04Z,42.805,6.029,13.2994,4.60033,2470.026,2022-5-04T06:20:44Z
2022-05-04T04:22:07Z,42.805,6.029,13.2998,4.60036,2470.017,2022-5-04T06:23:47Z
2022-05-04T04:25:10Z,42.805,6.029,13.2996,4.60034,2470.03,2022-5-04T06:26:50Z
2022-05-04T04:28:14Z,42.805,6.029,13.2997,4.60034,2470.007,2022-5-04T06:29:54Z
2022-05-04T04:31:17Z,42.805,6.029,13.2995,4.60036,2470.053,2022-5-04T06:32:57Z
2022-05-04T04:34:20Z,42.805,6.029,13.2996,4.60033,2470.04,2022-5-04T06:36:00Z
2022-05-04T04:37:23Z,42.805,6.029,13.2998,4.60036,2470.017,2022-5-04T06:39:03Z
2022-05-04T04:40:26Z,42.805,6.029,13.2998,4.60035,2470.007,2022-5-04T06:42:06Z
2022-05-04T04:43:29Z,42.805,6.029,13.2998,4.60035,2469.97,2022-5-04T06:45:09Z
2022-05-04T04:46:32Z,42.805,6.029,13.2998,4.60034,2470.017,2022-5-04T06:48:12Z
2022-05-04T04:49:35Z,42.805,6.029,13.2998,4.60033,2469.993,2022-5-04T06:51:15Z
2022-05-04T04:52:38Z,42.805,6.029,13.2994,4.60035,2469.96,2022-5-04T06:54:18Z
2022-05-04T04:55:42Z,42.805,6.029,13.2998,4.60034,2469.96,2022-5-04T06:57:22Z
2022-05-04T04:58:45Z,42.805,6.029,13.2997,4.60035,2469.97,2022-5-04T07:00:25Z
2022-05-04T05:01:48Z,42.805,6.029,13.2998,4.60033,2470.007,2022-5-04T07:03:28Z
2022-05-04T05:04:51Z,42.805,6.029,13.2999,4.60034,2470.017,2022-5-04T07:06:31Z
2022-05-04T05:07:54Z,42.805,6.029,13.2998,4.60035,2469.984,2022-5-04T07:09:34Z
2022-05-04T05:10:57Z,42.805,6.029,13.2997,4.60037,2469.984,2022-5-04T07:12:37Z
2022-05-04T05:14:00Z,42.805,6.029,13.2999,4.60036,2470.053,2022-5-04T07:15:40Z
2022-05-04T05:17:03Z,42.805,6.029,13.3000,4.60036,2469.993,2022-5-04T07:18:43Z
2022-05-04T05:20:07Z,42.805,6.029,13.2994,4.60034,2469.993,2022-5-04T07:21:46Z
2022-05-04T05:23:10Z,42.805,6.029,13.2997,4.60034,2469.97,2022-5-04T07:24:50Z
2022-05-04T05:26:13Z,42.805,6.029,13.2998,4.60034,2469.993,2022-5-04T07:27:53Z
2022-05-04T05:29:16Z,42.805,6.029,13.3000,4.60033,2470.017,2022-5-04T07:30:56Z
2022-05-04T05:32:19Z,42.805,6.029,13.2997,4.60038,2470.04,2022-5-04T07:33:59Z
2022-05-04T05:35:22Z,42.805,6.029,13.2996,4.60036,2470.007,2022-5-04T07:37:02Z
2022-05-04T05:38:25Z,42.805,6.029,13.2996,4.60036,2469.97,2022-5-04T07:40:05Z
2022-05-04T05:41:28Z,42.805,6.029,13.2999,4.60036,2469.993,2022-5-04T07:43:08Z
2022-05-04T05:44:31Z,42.805,6.029,13.3002,4.60033,2470.053,2022-5-04T07:46:11Z
2022-05-04T05:47:35Z,42.805,6.029,13.3001,4.60034,2470.007,2022-5-04T07:49:15Z
2022-05-04T05:50:38Z,42.805,6.029,13.2998,4.60033,2470.017,2022-5-04T07:52:18Z
2022-05-04T05:53:41Z,42.805,6.029,13.2998,4.60034,2469.993,2022-5-04T07:55:21Z
2022-05-04T05:56:44Z,42.805,6.029,13.2998,4.60034,2470.007,2022-5-04T07:58:24Z
2022-05-04T05:59:47Z,42.805,6.029,13.2996,4.60033,2470.053,2022-5-04T08:01:27Z
2022-05-04T06:02:50Z,42.805,6.029,13.2993,4.60033,2470.03,2022-5-04T08:04:30Z
2022-05-04T06:05:53Z,42.805,6.029,13.2995,4.60033,2470.04,2022-5-04T08:07:33Z
2022-05-04T06:08:56Z,42.805,6.029,13.2998,4.60033,2470.04,2022-5-04T08:10:36Z
2022-05-04T06:11:59Z,42.805,6.029,13.2996,4.60033,2470.063,2022-5-04T08:13:39Z
2022-05-04T06:15:03Z,42.805,6.029,13.3000,4.60033,2470.053,2022-5-04T08:16:43Z
2022-05-04T06:18:06Z,42.805,6.029,13.2998,4.60035,2470.077,2022-5-04T08:19:46Z
2022-05-04T06:21:09Z,42.805,6.029,13.3000,4.60034,2470.053,2022-5-04T08:22:49Z
2022-05-04T06:24:12Z,42.805,6.029,13.2995,4.60034,2470.063,2022-5-04T08:25:52Z
2022-05-04T06:27:15Z,42.805,6.029,13.2996,4.60035,2470.053,2022-5-04T08:28:55Z
2022-05-04T06:30:18Z,42.805,6.029,13.2999,4.60033,2470.053,2022-5-04T08:31:58Z
2022-05-04T06:33:21Z,42.805,6.029,13.2995,4.60034,2470.04,2022-5-04T08:35:01Z
2022-05-04T06:36:24Z,42.805,6.029,13.2997,4.60034,2470.053,2022-5-04T08:38:04Z
2022-05-04T06:39:27Z,42.805,6.029,13.2996,4.60034,2470.049,2022-5-04T08:41:07Z
2022-05-04T06:42:31Z,42.805,6.029,13.2999,4.60033,2470.04,2022-5-04T08:44:11Z
2022-05-04T06:45:34Z,42.805,6.029,13.2996,4.60035,2470.017,2022-5-04T08:47:14Z
2022-05-04T06:48:37Z,42.805,6.029,13.2998,4.60033,2470.077,2022-5-04T08:50:17Z
2022-05-04T06:51:40Z,42.805,6.029,13.2998,4.60033,2470.04,2022-5-04T08:53:20Z
2022-05-04T06:54:43Z,42.805,6.029,13.2997,4.60033,2470.04,2022-5-04T08:56:23Z
2022-05-04T06:57:46Z,42.805,6.029,13.2995,4.60033,2470.04,2022-5-04T08:59:26Z
2022-05-04T07:00:49Z,42.805,6.029,13.2995,4.60035,2470.077,2022-5-04T09:02:29Z
2022-05-04T07:03:52Z,42.805,6.029,13.2996,4.60034,2470.017,2022-5-04T09:05:32Z
2022-05-04T07:06:55Z,42.805,6.029,13.2996,4.60034,2470.063,2022-5-04T09:08:35Z
2022-05-04T07:09:59Z,42.805,6.029,13.2998,4.60032,2470.063,2022-5-04T09:11:39Z
2022-05-04T07:13:02Z,42.805,6.029,13.2999,4.60033,2470.04,2022-5-04T09:14:42Z
2022-05-04T07:16:05Z,42.805,6.029,13.2998,4.60033,2470.063,2022-5-04T09:17:45Z
2022-05-04T07:19:08Z,42.805,6.029,13.2998,4.60034,2470.077,2022-5-04T09:20:48Z
2022-05-04T07:22:11Z,42.805,6.029,13.2997,4.60034,2470.04,2022-5-04T09:23:51Z
2022-05-04T07:25:14Z,42.805,6.029,13.2998,4.60034,2470.077,2022-5-04T09:26:54Z
2022-05-04T07:28:17Z,42.805,6.029,13.2996,4.60034,2470.087,2022-5-04T09:29:57Z
2022-05-04T07:31:20Z,42.805,6.029,13.2998,4.60038,2470.063,2022-5-04T09:33:00Z
2022-05-04T07:34:24Z,42.805,6.029,13.2996,4.60036,2470.053,2022-5-04T09:36:04Z
2022-05-04T07:37:27Z,42.805,6.029,13.2994,4.60033,2470.063,2022-5-04T09:39:07Z
2022-05-04T07:40:30Z,42.805,6.029,13.2996,4.60035,2470.04,2022-5-04T09:42:10Z
2022-05-04T07:43:33Z,42.805,6.029,13.2997,4.60033,2470.077,2022-5-04T09:45:13Z
2022-05-04T07:46:36Z,42.805,6.029,13.2993,4.60035,2470.063,2022-5-04T09:48:16Z
2022-05-04T07:49:39Z,42.805,6.029,13.2998,4.60034,2470.063,2022-5-04T09:51:19Z
2022-05-04T07:52:42Z,42.805,6.029,13.2997,4.60034,2470.063,2022-5-04T09:54:22Z
2022-05-04T07:55:45Z,42.805,6.029,13.2998,4.60035,2470.063,2022-5-04T09:57:25Z
2022-05-04T07:58:48Z,42.805,6.029,13.2999,4.60035,2470.04,2022-5-04T10:00:28Z
2022-05-04T08:01:52Z,42.805,6.029,13.2996,4.60033,2470.077,2022-5-04T10:03:32Z
2022-05-04T08:04:55Z,42.805,6.029,13.2998,4.60033,2470.063,2022-5-04T10:06:35Z
2022-05-04T08:07:58Z,42.805,6.029,13.2997,4.60033,2470.063,2022-5-04T10:09:38Z
2022-05-04T08:11:01Z,42.805,6.029,13.2992,4.60033,2470.077,2022-5-04T10:12:41Z
2022-05-04T08:14:04Z,42.805,6.029,13.2997,4.60033,2470.063,2022-5-04T10:15:44Z
2022-05-04T08:17:07Z,42.805,6.029,13.2996,4.60034,2470.04,2022-5-04T10:18:47Z
2022-05-04T08:20:10Z,42.805,6.029,13.3000,4.60033,2470.063,2022-5-04T10:21:50Z
2022-05-04T08:23:13Z,42.805,6.029,13.2997,4.60034,2470.063,2022-5-04T10:24:53Z
2022-05-04T08:26:17Z,42.805,6.029,13.3000,4.60035,2470.077,2022-5-04T10:27:57Z
2022-05-04T08:29:20Z,42.805,6.029,13.2998,4.60033,2470.063,2022-5-04T10:31:00Z
2022-05-04T08:32:23Z,42.805,6.029,13.2998,4.60035,2470.077,2022-5-04T10:34:03Z
2022-05-04T08:35:26Z,42.805,6.029,13.2994,4.60035,2470.053,2022-5-04T10:37:06Z
2022-05-04T08:38:29Z,42.805,6.029,13.2993,4.60034,2470.063,2022-5-04T10:40:09Z
2022-05-04T08:41:32Z,42.805,6.029,13.2996,4.60035,2470.063,2022-5-04T10:43:12Z
2022-05-04T08:44:35Z,42.805,6.029,13.3000,4.60034,2470.053,2022-5-04T10:46:15Z
2022-05-04T08:47:38Z,42.805,6.029,13.3000,4.60036,2470.04,2022-5-04T10:49:18Z
2022-05-04T08:50:41Z,42.805,6.029,13.2998,4.60034,2470.017,2022-5-04T10:52:21Z
2022-05-04T08:53:45Z,42.805,6.029,13.2996,4.60035,2470.04,2022-5-04T10:55:25Z
2022-05-04T08:56:48Z,42.805,6.029,13.2998,4.60035,2470.063,2022-5-04T10:58:28Z
2022-05-04T08:59:51Z,42.805,6.029,13.2999,4.60034,2470.04,2022-5-04T11:01:31Z
2022-05-04T09:02:54Z,42.805,6.029,13.2998,4.60034,2470.04,2022-5-04T11:04:34Z
2022-05-04T09:05:57Z,42.805,6.029,13.2998,4.60035,2470.017,2022-5-04T11:07:37Z
2022-05-04T09:09:00Z,42.805,6.029,13.2998,4.60035,2470.03,2022-5-04T11:10:40Z
2022-05-04T09:12:03Z,42.805,6.029,13.2998,4.60034,2470.04,2022-5-04T11:13:43Z
2022-05-04T09:15:06Z,42.805,6.029,13.2997,4.60034,2469.993,2022-5-04T11:16:46Z
2022-05-04T09:18:10Z,42.805,6.029,13.2996,4.60034,2470.053,2022-5-04T11:19:50Z
2022-05-04T09:21:13Z,42.805,6.029,13.2998,4.60036,2470.017,2022-5-04T11:22:53Z
2022-05-04T09:24:16Z,42.805,6.029,13.2998,4.60034,2470.04,2022-5-04T11:25:56Z
2022-05-04T09:27:19Z,42.805,6.029,13.2995,4.60033,2470.017,2022-5-04T11:28:59Z
2022-05-04T09:30:22Z,42.805,6.029,13.2999,4.60034,2469.993,2022-5-04T11:32:02Z
2022-05-04T09:33:25Z,42.805,6.029,13.2992,4.60033,2469.993,2022-5-04T11:35:05Z
2022-05-04T09:36:28Z,42.805,6.029,13.2996,4.60033,2469.993,2022-5-04T11:38:08Z
2022-05-04T09:39:31Z,42.805,6.029,13.2995,4.60034,2470.017,2022-5-04T11:41:11Z
2022-05-04T09:42:35Z,42.805,6.029,13.2994,4.60034,2470.007,2022-5-04T11:44:15Z
2022-05-04T09:45:38Z,42.805,6.029,13.2997,4.60034,2470.03,2022-5-04T11:47:18Z
2022-05-04T09:48:41Z,42.805,6.029,13.2996,4.60034,2470.017,2022-5-04T11:50:21Z
2022-05-04T09:51:44Z,42.805,6.029,13.2996,4.60034,2470.017,2022-5-04T11:53:24Z
2022-05-04T09:54:47Z,42.805,6.029,13.2999,4.60036,2470.007,2022-5-04T11:56:27Z
2022-05-04T09:57:50Z,42.805,6.029,13.2994,4.60033,2469.993,2022-5-04T11:59:30Z
2022-05-04T10:00:53Z,42.805,6.029,13.3000,4.60036,2470.007,2022-5-04T12:02:33Z
2022-05-04T10:03:56Z,42.805,6.029,13.2995,4.60034,2470.017,2022-5-04T12:05:36Z
2022-05-04T10:07:00Z,42.805,6.029,13.2997,4.60033,2469.97,2022-5-04T12:08:39Z
2022-05-04T10:10:03Z,42.805,6.029,13.2997,4.60034,2469.984,2022-5-04T12:11:43Z
2022-05-04T10:13:06Z,42.805,6.029,13.2999,4.60034,2469.97,2022-5-04T12:14:46Z
2022-05-04T10:16:09Z,42.805,6.029,13.2997,4.60033,2470.03,2022-5-04T12:17:49Z
2022-05-04T10:19:12Z,42.805,6.029,13.3000,4.60033,2470.03,2022-5-04T12:20:52Z
2022-05-04T10:22:15Z,42.805,6.029,13.2998,4.60034,2470.007,2022-5-04T12:23:55Z
2022-05-04T10:25:18Z,42.805,6.029,13.2997,4.60034,2470.017,2022-5-04T12:26:58Z
2022-05-04T10:28:21Z,42.805,6.029,13.3001,4.60034,2470.017,2022-5-04T12:30:01Z
2022-05-04T10:31:24Z,42.805,6.029,13.2998,4.60035,2470.007,2022-5-04T12:33:04Z
2022-05-04T10:34:28Z,42.805,6.029,13.2996,4.60035,2469.993,2022-5-04T12:36:08Z
2022-05-04T10:37:31Z,42.805,6.029,13.2997,4.60036,2470.053,2022-5-04T12:39:11Z
2022-05-04T10:40:34Z,42.805,6.029,13.2996,4.60036,2470.017,2022-5-04T12:42:14Z
2022-05-04T10:43:37Z,42.805,6.029,13.2997,4.60036,2470.053,2022-5-04T12:45:17Z
2022-05-04T10:46:40Z,42.805,6.029,13.2995,4.60034,2469.956,2022-5-04T12:48:20Z
2022-05-04T10:49:43Z,42.805,6.029,13.2995,4.60034,2469.984,2022-5-04T12:51:23Z
2022-05-04T10:52:46Z,42.805,6.029,13.2995,4.60035,2470.017,2022-5-04T12:54:26Z
2022-05-04T10:55:49Z,42.805,6.029,13.3000,4.60034,2470.03,2022-5-04T12:57:29Z
2022-05-04T10:58:53Z,42.805,6.029,13.2998,4.60034,2469.993,2022-5-04T13:00:33Z
2022-05-04T11:01:56Z,42.805,6.029,13.2996,4.60034,2469.993,2022-5-04T13:03:36Z
2022-05-04T11:04:59Z,42.805,6.029,13.2998,4.60033,2469.984,2022-5-04T13:06:39Z
2022-05-04T11:08:02Z,42.805,6.029,13.2996,4.60033,2470.007,2022-5-04T13:09:42Z
2022-05-04T11:11:05Z,42.805,6.029,13.2998,4.60035,2469.993,2022-5-04T13:12:45Z
2022-05-04T11:14:08Z,42.805,6.029,13.2999,4.60035,2469.993,2022-5-04T13:15:48Z
2022-05-04T11:17:11Z,42.805,6.029,13.2999,4.60034,2469.993,2022-5-04T13:18:51Z
2022-05-04T11:20:14Z,42.805,6.029,13.2996,4.60033,2470.007,2022-5-04T13:21:54Z
2022-05-04T11:23:18Z,42.805,6.029,13.2997,4.60033,2469.97,2022-5-04T13:24:58Z
2022-05-04T11:26:21Z,42.805,6.029,13.2999,4.60033,2469.97,2022-5-04T13:28:01Z
2022-05-04T11:29:24Z,42.805,6.029,13.3000,4.60033,2469.97,2022-5-04T13:31:04Z
2022-05-04T11:32:27Z,42.805,6.029,13.2997,4.60034,2470.017,2022-5-04T13:34:07Z
2022-05-04T11:35:30Z,42.805,6.029,13.2998,4.60033,2469.993,2022-5-04T13:37:10Z
2022-05-04T11:38:33Z,42.805,6.029,13.2997,4.60034,2470.017,2022-5-04T13:40:13Z
2022-05-04T11:41:36Z,42.805,6.029,13.2996,4.60035,2469.993,2022-5-04T13:43:16Z
2022-05-04T11:44:39Z,42.805,6.029,13.2999,4.60033,2469.97,2022-5-04T13:46:19Z
2022-05-04T11:47:43Z,42.805,6.029,13.2994,4.60033,2470.007,2022-5-04T13:49:23Z
2022-05-04T11:50:46Z,42.805,6.029,13.2998,4.60033,2469.984,2022-5-04T13:52:26Z
2022-05-04T11:53:49Z,42.805,6.029,13.2998,4.60033,2469.993,2022-5-04T13:55:29Z
2022-05-04T11:56:52Z,42.805,6.029,13.2994,4.60033,2469.97,2022-5-04T13:58:32Z
2022-05-04T11:59:55Z,42.805,6.029,13.2998,4.60033,2470.017,2022-5-04T14:01:35Z
2022-05-04T12:02:58Z,42.805,6.029,13.2998,4.60033,2469.993,2022-5-04T14:04:38Z
2022-05-04T12:06:01Z,42.805,6.029,13.2995,4.60033,2470.007,2022-5-04T14:07:41Z
2022-05-04T12:09:04Z,42.805,6.029,13.2996,4.60033,2469.947,2022-5-04T14:10:44Z
2022-05-04T12:12:07Z,42.805,6.029,13.2998,4.60033,2469.97,2022-5-04T14:13:47Z
2022-05-04T12:15:11Z,42.805,6.029,13.2997,4.60033,2469.97,2022-5-04T14:16:51Z
2022-05-04T12:18:14Z,42.805,6.029,13.2997,4.60033,2469.984,2022-5-04T14:19:54Z
2022-05-04T12:21:17Z,42.805,6.029,13.2995,4.60033,2469.947,2022-5-04T14:22:57Z
2022-05-04T12:24:20Z,42.805,6.029,13.3000,4.60032,2469.97,2022-5-04T14:26:00Z
2022-05-04T12:27:23Z,42.805,6.029,13.2998,4.60035,2469.984,2022-5-04T14:29:03Z
2022-05-04T12:30:26Z,42.805,6.029,13.2998,4.60033,2469.96,2022-5-04T14:32:06Z
2022-05-04T12:33:29Z,42.805,6.029,13.3000,4.60033,2469.984,2022-5-04T14:35:09Z
2022-05-04T12:36:32Z,42.805,6.029,13.2999,4.60033,2469.97,2022-5-04T14:38:12Z
2022-05-04T12:39:36Z,42.805,6.029,13.2996,4.60033,2469.984,2022-5-04T14:41:16Z
2022-05-04T12:42:39Z,42.805,6.029,13.3001,4.60033,2469.947,2022-5-04T14:44:19Z
2022-05-04T12:45:42Z,42.805,6.029,13.2998,4.60036,2469.947,2022-5-04T14:47:22Z
2022-05-04T12:48:45Z,42.805,6.029,13.2997,4.60034,2469.984,2022-5-04T14:50:25Z
2022-05-04T12:51:48Z,42.805,6.029,13.2998,4.60034,2469.96,2022-5-04T14:53:28Z
2022-05-04T12:54:51Z,42.805,6.029,13.2998,4.60035,2469.993,2022-5-04T14:56:31Z
2022-05-04T12:57:54Z,42.805,6.029,13.2998,4.60033,2469.96,2022-5-04T14:59:34Z
2022-05-04T13:00:57Z,42.805,6.029,13.2996,4.60033,2470.007,2022-5-04T15:02:37Z
2022-05-04T13:04:01Z,42.805,6.029,13.3000,4.60034,2469.947,2022-5-04T15:05:41Z
2022-05-04T13:07:04Z,42.805,6.029,13.2996,4.60033,2469.96,2022-5-04T15:08:44Z
2022-05-04T13:10:07Z,42.805,6.029,13.2998,4.60034,2469.923,2022-5-04T15:11:47Z
2022-05-04T13:13:10Z,42.805,6.029,13.2995,4.60033,2469.97,2022-5-04T15:14:50Z
2022-05-04T13:16:13Z,42.805,6.029,13.2996,4.60034,2469.96,2022-5-04T15:17:53Z
2022-05-04T13:19:16Z,42.805,6.029,13.2996,4.60033,2469.947,2022-5-04T15:20:56Z
2022-05-04T13:22:19Z,42.805,6.029,13.2997,4.60033,2469.937,2022-5-04T15:23:59Z
2022-05-04T13:25:22Z,42.805,6.029,13.2995,4.60033,2469.937,2022-5-04T15:27:02Z
2022-05-04T13:28:25Z,42.805,6.029,13.2998,4.60033,2469.97,2022-5-04T15:30:06Z
2022-05-04T13:31:29Z,42.805,6.029,13.3000,4.60034,2469.937,2022-5-04T15:33:09Z
2022-05-04T13:34:32Z,42.805,6.029,13.2996,4.60033,2469.97,2022-5-04T15:36:12Z
2022-05-04T13:37:35Z,42.805,6.029,13.2998,4.60035,2469.947,2022-5-04T15:39:15Z
2022-05-04T13:40:38Z,42.805,6.029,13.2996,4.60033,2469.937,2022-5-04T15:42:18Z
2022-05-04T13:43:41Z,42.805,6.029,13.3000,4.60034,2469.993,2022-5-04T15:45:21Z
2022-05-04T13:46:44Z,42.805,6.029,13.2996,4.60036,2469.97,2022-5-04T15:48:24Z
2022-05-04T13:49:47Z,42.805,6.029,13.2997,4.60036,2469.947,2022-5-04T15:51:27Z
2022-05-04T13:52:50Z,42.805,6.029,13.2998,4.60033,2469.937,2022-5-04T15:54:30Z
2022-05-04T13:55:54Z,42.805,6.029,13.2998,4.60033,2469.993,2022-5-04T15:57:34Z
2022-05-04T13:58:57Z,42.805,6.029,13.2999,4.60035,2469.947,2022-5-04T16:00:37Z
2022-05-04T14:02:00Z,42.805,6.029,13.2996,4.60035,2469.96,2022-5-04T16:03:40Z
2022-05-04T14:05:03Z,42.805,6.029,13.2994,4.60035,2469.937,2022-5-04T16:06:43Z
2022-05-04T14:08:06Z,42.805,6.029,13.2995,4.60035,2469.937,2022-5-04T16:09:46Z
2022-05-04T14:11:09Z,42.805,6.029,13.2999,4.60034,2469.947,2022-5-04T16:12:49Z
2022-05-04T14:14:12Z,42.805,6.029,13.2998,4.60033,2469.923,2022-5-04T16:15:52Z
2022-05-04T14:17:15Z,42.805,6.029,13.2997,4.60033,2469.96,2022-5-04T16:18:55Z
2022-05-04T14:20:19Z,42.805,6.029,13.2999,4.60033,2469.97,2022-5-04T16:21:59Z
2022-05-04T14:23:22Z,42.805,6.029,13.2996,4.60033,2469.947,2022-5-04T16:25:02Z
2022-05-04T14:26:25Z,42.805,6.029,13.2998,4.60034,2469.923,2022-5-04T16:28:05Z
2022-05-04T14:29:28Z,42.805,6.029,13.3000,4.60034,2469.984,2022-5-04T16:31:08Z
2022-05-04T14:32:31Z,42.805,6.029,13.2995,4.60035,2469.947,2022-5-04T16:34:11Z
2022-05-04T14:35:34Z,42.805,6.029,13.2996,4.60036,2469.923,2022-5-04T16:37:14Z
2022-05-04T14:38:37Z,42.805,6.029,13.2996,4.60032,2469.947,2022-5-04T16:40:17Z
2022-05-04T14:41:40Z,42.805,6.029,13.2997,4.60033,2469.947,2022-5-04T16:43:20Z
2022-05-04T14:44:44Z,42.805,6.029,13.2998,4.60032,2469.9,2022-5-04T16:46:24Z
2022-05-04T14:47:47Z,42.805,6.029,13.2994,4.60033,2469.984,2022-5-04T16:49:27Z
2022-05-04T14:50:50Z,42.805,6.029,13.2996,4.60033,2469.97,2022-5-04T16:52:30Z
2022-05-04T14:53:53Z,42.805,6.029,13.2996,4.60033,2469.96,2022-5-04T16:55:33Z
2022-05-04T14:56:56Z,42.805,6.029,13.2998,4.60033,2469.923,2022-5-04T16:58:36Z
2022-05-04T14:59:59Z,42.805,6.029,13.2998,4.60033,2469.947,2022-5-04T17:01:39Z
2022-05-04T15:03:02Z,42.805,6.029,13.3000,4.60035,2469.993,2022-5-04T17:04:42Z
2022-05-04T15:06:05Z,42.805,6.029,13.2998,4.60033,2469.923,2022-5-04T17:07:45Z
2022-05-04T15:09:09Z,42.805,6.029,13.2995,4.60034,2469.923,2022-5-04T17:10:49Z
2022-05-04T15:12:12Z,42.805,6.029,13.2996,4.60035,2469.947,2022-5-04T17:13:52Z
2022-05-04T15:15:15Z,42.805,6.029,13.2997,4.60036,2469.97,2022-5-04T17:16:55Z